Weather History for PASD - November, 2012

Change the Weather History Date:

Friday, November 9, 2012

  Actual Average (PACD) Record (PACD)
Temperature  
Mean Temperature 44 °F 35 °F  
Max Temperature 46 °F 40 °F 55 °F (2013)
Min Temperature 42 °F 31 °F 15 °F (1976)
Degree Days  
Heating Degree Days 21 30  
Month to date heating degree days 260  
Since 1 July heating degree days 2373  
Cooling Degree Days 0    
Month to date cooling degree days  
Year to date cooling degree days  
Moisture  
Dew Point 45 °F    
Average Humidity 99    
Maximum Humidity 100    
Minimum Humidity 93    
Precipitation  
Precipitation 0.00 in 0.15 in 2.75 in (1948)
Month to date precipitation 1.42  
Year to date precipitation 33.65  
Snow  
Snow 0.00 in 0.30 in 5.30 in (2005)
Month to date snowfall 2.2  
Since 1 July snowfall 4.6  
Since 1 September snowfall 4.6  
Snow Depth -    
Sea Level Pressure  
Sea Level Pressure 29.28 in    
Wind  
Wind Speed 19 mph (SSE)    
Max Wind Speed 30 mph    
Max Gust Speed 39 mph    
Visibility 5 miles    
Events      
T = Trace of Precipitation, MM = Missing Value Source: NWS Daily Summary

Daily Weather History Graph

Daily Weather History Graph

Search for Another Location

Airport or City:

Trip Planner

Search our weather history database for the weather conditions in past years. The results will help you decide how hot, cold, wet, or windy it might be!

Date:

Astronomy

Nov. 09, 2012 Rise Set
Actual Time 9:04 AM AKST 5:46 PM AKST
Civil Twilight 8:24 AM AKST 6:26 PM AKST
Nautical Twilight 7:40 AM AKST 7:10 PM AKST
Astronomical Twilight 6:57 AM AKST 7:53 PM AKST
Moon 3:32 AM AKST (11/9) 3:44 PM AKST (11/9)
Length of Visible Light 10h 02m
Length of Day
8h 41m
Waning Crescent, 22% of the Moon is Illuminated
Nov 9
Waning Crescent
Nov 13
New
Nov 20
First Quarter
Nov 28
Full
Dec 6
Last Quarter

Hourly Weather History & Observations

Time (AKST) Temp. Windchill Dew Point Humidity Pressure Visibility Wind Dir Wind Speed Gust Speed Precip Events Conditions
12:16 AM 46.4 °F 38.5 °F 46.4 °F 100% 29.37 in 7.0 mi SSE 21.9 mph 29.9 mph N/A   Overcast
12:36 AM 46.4 °F 38.7 °F 46.4 °F 100% 29.38 in 3.0 mi SSE 20.7 mph 31.1 mph N/A   Overcast
12:56 AM 46.4 °F 39.5 °F 46.4 °F 100% 29.39 in 2.5 mi SSE 17.3 mph 27.6 mph N/A   Overcast
1:16 AM 46.4 °F 39.5 °F 44.6 °F 93% 29.39 in 3.0 mi SSE 17.3 mph 24.2 mph N/A   Overcast
1:36 AM 46.4 °F 39.8 °F 44.6 °F 93% 29.38 in 3.0 mi SSE 16.1 mph 24.2 mph N/A   Overcast
1:56 AM 46.4 °F 39.5 °F 44.6 °F 93% 29.37 in 2.5 mi SSE 17.3 mph 24.2 mph N/A   Overcast
2:16 AM 46.4 °F 39.0 °F 46.4 °F 100% 29.37 in 2.5 mi SSE 19.6 mph 26.5 mph N/A   Overcast
2:36 AM 46.4 °F 38.3 °F 44.6 °F 93% 29.35 in 2.5 mi SSE 23.0 mph 28.8 mph N/A   Overcast
2:56 AM 46.4 °F 38.1 °F 44.6 °F 93% 29.34 in 2.5 mi SSE 24.2 mph 32.2 mph N/A   Overcast
3:16 AM 46.4 °F 38.7 °F 44.6 °F 93% 29.34 in 2.5 mi SSE 20.7 mph 33.4 mph N/A   Overcast
3:36 AM 46.4 °F 38.5 °F 44.6 °F 93% 29.34 in 2.5 mi SSE 21.9 mph 28.8 mph N/A   Overcast
3:56 AM 46.4 °F 39.2 °F 44.6 °F 93% 29.34 in 3.0 mi SSE 18.4 mph 26.5 mph N/A   Overcast
4:16 AM 46.4 °F 39.2 °F 44.6 °F 93% 29.35 in 3.0 mi SSE 18.4 mph 29.9 mph N/A   Overcast
4:36 AM 46.4 °F 39.0 °F 44.6 °F 93% 29.35 in 3.0 mi SSE 19.6 mph 27.6 mph N/A   Overcast
4:56 AM 46.4 °F 39.0 °F 44.6 °F 93% 29.33 in 4.0 mi SSE 19.6 mph 28.8 mph N/A   Overcast
5:16 AM 46.4 °F 38.3 °F 46.4 °F 100% 29.32 in 3.0 mi SSE 23.0 mph 34.5 mph N/A   Overcast
5:36 AM 46.4 °F 39.0 °F 46.4 °F 100% 29.32 in 4.0 mi SSE 19.6 mph 29.9 mph N/A   Overcast
5:56 AM 46.4 °F 38.1 °F 46.4 °F 100% 29.31 in 3.0 mi SSE 24.2 mph 31.1 mph N/A   Overcast
6:16 AM 46.4 °F 37.5 °F 46.4 °F 100% 29.28 in 3.0 mi SSE 27.6 mph 34.5 mph N/A   Overcast
6:36 AM 46.4 °F 37.5 °F 46.4 °F 100% 29.27 in 4.0 mi SSE 27.6 mph 36.8 mph N/A   Overcast
6:56 AM 46.4 °F 37.5 °F 46.4 °F 100% 29.27 in 5.0 mi SSE 27.6 mph 39.1 mph N/A   Overcast
7:16 AM 46.4 °F 38.1 °F 44.6 °F 93% 29.27 in 4.0 mi SSE 24.2 mph 31.1 mph N/A   Overcast
7:36 AM 46.4 °F 37.5 °F 46.4 °F 100% 29.27 in 5.0 mi SSE 27.6 mph 32.2 mph N/A   Overcast
7:56 AM 46.4 °F 37.5 °F 46.4 °F 100% 29.27 in 4.0 mi SSE 27.6 mph 33.4 mph N/A   Overcast
8:16 AM 46.4 °F 37.2 °F 46.4 °F 100% 29.26 in 6.0 mi SSE 29.9 mph 35.7 mph N/A   Overcast
8:36 AM 46.4 °F 37.5 °F 46.4 °F 100% 29.26 in 3.0 mi SSE 27.6 mph 35.7 mph N/A   Overcast
8:56 AM 46.4 °F 38.1 °F 46.4 °F 100% 29.28 in 2.5 mi SSE 24.2 mph 33.4 mph N/A   Overcast
9:16 AM 44.6 °F 35.5 °F 44.6 °F 100% 29.28 in 2.0 mi SSE 25.3 mph 31.1 mph N/A   Overcast
9:36 AM 44.6 °F 35.5 °F 44.6 °F 100% 29.27 in 2.0 mi SSE 25.3 mph 33.4 mph N/A   Overcast
9:56 AM 44.6 °F 35.3 °F 44.6 °F 100% 29.27 in 2.0 mi SSE 26.5 mph 33.4 mph N/A   Overcast
10:16 AM 44.6 °F 35.3 °F 44.6 °F 100% 29.26 in 3.0 mi South 26.5 mph 34.5 mph N/A   Overcast
10:36 AM 46.4 °F 37.4 °F 46.4 °F 100% 29.26 in 8.0 mi South 28.8 mph 33.4 mph N/A   Overcast
10:56 AM 46.4 °F 38.3 °F 46.4 °F 100% 29.28 in 9.0 mi South 23.0 mph 33.4 mph N/A   Overcast
11:16 AM 44.6 °F 36.4 °F 44.6 °F 100% 29.28 in 8.0 mi SSE 20.7 mph 28.8 mph N/A   Overcast
11:36 AM 44.6 °F 36.6 °F 44.6 °F 100% 29.28 in 2.5 mi SSE 19.6 mph 26.5 mph N/A   Overcast
11:56 AM 44.6 °F 36.6 °F 44.6 °F 100% 29.27 in 2.0 mi SSE 19.6 mph 29.9 mph N/A   Overcast
12:16 PM 44.6 °F 36.1 °F 44.6 °F 100% 29.27 in 3.0 mi SSE 21.9 mph 29.9 mph N/A   Overcast
12:36 PM 44.6 °F 36.6 °F 44.6 °F 100% 29.26 in 4.0 mi SSE 19.6 mph 26.5 mph N/A   Overcast
12:56 PM 44.6 °F 35.9 °F 44.6 °F 100% 29.25 in 7.0 mi SSE 23.0 mph 31.1 mph N/A   Overcast
1:16 PM 44.6 °F 37.2 °F 44.6 °F 100% 29.26 in 3.0 mi SSE 17.3 mph 26.5 mph N/A   Overcast
1:36 PM 44.6 °F 35.9 °F 44.6 °F 100% 29.25 in 4.0 mi SSE 23.0 mph - N/A   Overcast
1:56 PM 44.6 °F 36.6 °F 44.6 °F 100% 29.25 in 3.0 mi SSE 19.6 mph 25.3 mph N/A   Overcast
2:16 PM 44.6 °F 35.7 °F 44.6 °F 100% 29.24 in 9.0 mi SSE 24.2 mph - N/A   Overcast
2:36 PM 44.6 °F 36.9 °F 42.8 °F 93% 29.24 in 8.0 mi SSE 18.4 mph - N/A   Overcast
2:56 PM 44.6 °F 38.1 °F 44.6 °F 100% 29.24 in 9.0 mi SSE 13.8 mph 26.5 mph N/A   Overcast
3:16 PM 44.6 °F 37.2 °F 42.8 °F 93% 29.23 in 9.0 mi SSE 17.3 mph 25.3 mph N/A   Overcast
3:36 PM 44.6 °F 36.9 °F 44.6 °F 100% 29.23 in 3.0 mi SSE 18.4 mph 24.2 mph N/A   Overcast
3:56 PM 44.6 °F 37.8 °F 44.6 °F 100% 29.23 in 3.0 mi SSE 15.0 mph 24.2 mph N/A   Overcast
4:16 PM 44.6 °F 37.8 °F 44.6 °F 100% 29.22 in 3.0 mi SSE 15.0 mph 20.7 mph N/A   Overcast
4:36 PM 44.6 °F 36.9 °F 44.6 °F 100% 29.22 in 3.0 mi SSE 18.4 mph 23.0 mph N/A   Overcast
4:56 PM 44.6 °F 36.9 °F 44.6 °F 100% 29.22 in 3.0 mi SSE 18.4 mph 24.2 mph N/A   Overcast
5:16 PM 44.6 °F 37.4 °F 44.6 °F 100% 29.22 in 5.0 mi SSE 16.1 mph 23.0 mph N/A   Overcast
5:36 PM 44.6 °F 37.8 °F 44.6 °F 100% 29.22 in 5.0 mi SSE 15.0 mph 21.9 mph N/A   Overcast
5:56 PM 44.6 °F 37.8 °F 44.6 °F 100% 29.22 in 3.0 mi SSE 15.0 mph 23.0 mph N/A   Overcast
6:16 PM 44.6 °F 38.1 °F 44.6 °F 100% 29.23 in 3.0 mi SSE 13.8 mph 18.4 mph N/A   Overcast
6:36 PM 44.6 °F 38.1 °F 44.6 °F 100% 29.22 in 3.0 mi SSE 13.8 mph - N/A   Overcast
6:56 PM 44.6 °F 38.4 °F 44.6 °F 100% 29.23 in 2.0 mi SSE 12.7 mph 17.3 mph N/A   Overcast
7:16 PM 44.6 °F 39.7 °F 44.6 °F 100% 29.23 in 2.0 mi SSE 9.2 mph - N/A   Overcast
7:36 PM 42.8 °F 38.0 °F 42.8 °F 100% 29.24 in 2.0 mi SE 8.1 mph - N/A   Overcast
7:56 PM 44.6 °F 40.2 °F 44.6 °F 100% 29.24 in 2.0 mi SE 8.1 mph - N/A   Overcast
8:16 PM 44.6 °F 42.2 °F 44.6 °F 100% 29.24 in 10.0 mi SE 4.6 mph - N/A   Overcast
8:36 PM 44.6 °F - 44.6 °F 100% 29.24 in 10.0 mi Calm Calm - N/A   Overcast
8:56 PM 42.8 °F - 42.8 °F 100% 29.24 in 10.0 mi Calm Calm - N/A   Overcast
9:16 PM 42.8 °F - 42.8 °F 100% 29.24 in 10.0 mi Calm Calm - N/A   Overcast
9:36 PM 42.8 °F - 42.8 °F 100% 29.24 in 10.0 mi Calm Calm - N/A   Overcast
9:56 PM 42.8 °F - 42.8 °F 100% 29.25 in 10.0 mi Calm Calm - N/A   Overcast
10:16 PM 42.8 °F - 42.8 °F 100% 29.26 in 10.0 mi Calm Calm - N/A   Overcast
10:36 PM 42.8 °F - 42.8 °F 100% 29.26 in 10.0 mi Calm Calm - N/A   Overcast
10:56 PM 42.8 °F - 42.8 °F 100% 29.26 in 10.0 mi Calm Calm - N/A   Overcast
11:16 PM 42.8 °F 40.1 °F 42.8 °F 100% 29.27 in 10.0 mi NNE 4.6 mph - N/A   Overcast
11:36 PM 42.8 °F 39.3 °F 42.8 °F 100% 29.27 in 10.0 mi NNE 5.8 mph - N/A   Overcast
11:56 PM 42.8 °F 40.1 °F 42.8 °F 100% 29.28 in 10.0 mi NNE 4.6 mph - N/A   Overcast